Regional Weather Roundup
Issued by NWS Upton, NY

Current Version | Previous Version | Text Only | Print | Product List | Glossary On
Versions: 1 2 3 4 5 6 7 8 9 10 11 12 13 14 15 16 17 18 19 20 21 22 23 24 25 26 27 28 29 30 31 32 33 34 35 36 37 38 39 40 41 42 43 44 45 46 47 48 49 50
000
ASUS41 KOKX 300804
RWROKX

REGIONAL WEATHER ROUNDUP
NATIONAL WEATHER SERVICE NEW YORK NY
400 AM EDT TUE AUG 30 2016

NOTE: "FAIR" INDICATES FEW OR NO CLOUDS BELOW 12,000 FEET WITH NO
SIGNIFICANT WEATHER AND/OR OBSTRUCTIONS TO VISIBILITY.

NYZ071-072-176-178-NJZ106-104-300900-
NEW YORK CITY METRO AREA

CITY           SKY/WX    TMP DP  RH WIND       PRES   REMARKS
Central Park   PTCLDY    72  56  57 E3        30.17S
LaGuardia APRT PTCLDY    74  60  61 NE14      30.14R
Kennedy INTL   PTCLDY    72  61  68 NE10      30.14S
Newark/Liberty PTCLDY    71  58  63 N10       30.14S
Bronx Bot Gard   N/A     70  54  56 N3        30.17R
Wall St Helipt SUNNY     75  61  60 NE12G17   30.14S
Teterboro      CLEAR     70  57  63 N5        30.14S
$$

NYZ177-179-078>081-300900-
LONG ISLAND NEW YORK

CITY           SKY/WX    TMP DP  RH WIND       PRES   REMARKS
Farmingdale    CLEAR     70  59  68 NE8       30.14S
MacArthur/ISP    N/A    N/A N/A N/A MISG      30.14S
Shirley        CLEAR     65  56  72 CALM      30.15S
Riverhead      NOT AVBL
Westhampton    PTCLDY    64  56  75 NE6       30.16S
Southampton      N/A     66  57  72 NE3       30.11S
Bridgehampton    N/A     64  59  82 CALM      30.14S
East Hampton   FAIR      65  57  74 CALM      30.15R
Montauk          N/A     69  59  70 N7        30.16S
$$

NYZ052-065-067-300900-
HUDSON VALLEY

CITY           SKY/WX    TMP DP  RH WIND       PRES   REMARKS
White Plains   CLEAR     67  54  63 NE5       30.16R
Newburgh       CLEAR     64  59  82 VRB5      30.19S
Montgomery     CLEAR     57  56  96 CALM      30.18S
Poughkeepsie   CLEAR     58  56  93 CALM      30.17S
Albany         CLEAR     59  56  89 CALM      30.18S
$$

NJZ001-105-106-008-010-013-015-019>022-104-300900-
NEW JERSEY

CITY           SKY/WX    TMP DP  RH WIND       PRES   REMARKS
Newark/Liberty PTCLDY    71  58  63 N10       30.14S
Teterboro      CLEAR     70  57  63 N5        30.14S
Caldwell       CLEAR     65  60  84 CALM      30.16S
Morristown     CLEAR     57  57 100 CALM      30.16S
Somerville     CLEAR     62  59  90 NW5       30.13S
Linden         FAIR      73  56  54 NE8       30.16R
Sussex         CLEAR     56  56 100 CALM      30.19R
Abdover          N/A     58  57  97 CALM      30.19R
Trenton        CLEAR     67  58  72 N6        30.13S
Millville      CLEAR     72  62  71 NE6       30.11S
Atlantic City  CLEAR     68  61  78 N6        30.10S
Wrightstown    CLEAR     64  59  84 N3        30.10S
Toms River     CLEAR     62  59  90 N3        30.12S
Belmar         CLEAR     71  61  70 N6        30.14R
$$

PAZ047>061-062-071-300900-
EASTERN PENNSYLVANIA

CITY           SKY/WX    TMP DP  RH WIND       PRES   REMARKS
Philadelphia   CLEAR     74  58  57 NE7       30.13S
Allentown      CLEAR     60  56  86 CALM      30.16S
Scranton       CLEAR     59  55  87 E7        30.19S
$$

CTZ002-004>006-009-010-012-RIZ004-006-007-MAZ004-011-015-300900-
SOUTHERN NEW ENGLAND
 IN CT

CITY           SKY/WX    TMP DP  RH WIND       PRES   REMARKS
Bradley INTL   CLEAR     61  54  77 N3        30.18S
Hartford       CLEAR     64  57  78 CALM      30.17S
Danbury        CLEAR     57  55  93 CALM      30.19R
Wtrbury/Oxford   N/A     64  52  63 NE6       30.18S
Bridgeport     CLEAR     69  55  60 NE8       30.16S
Meriden        CLEAR     60  55  83 CALM      30.17S
New Haven      CLEAR     63  54  72 N6        30.17R
Chester        FAIR      64  55  72 N5        30.17S
Groton         CLEAR     64  56  75 N8        30.15S
Wilimantic     CLEAR     59  56  89 CALM      30.18S

 IN RI

CITY           SKY/WX    TMP DP  RH WIND       PRES   REMARKS
Providence     CLEAR     64  53  67 N7        30.16S
Block Island   CLEAR     69  58  67 NE8       30.15S
Westerly       CLEAR     60  53  77 CALM      30.16S
 IN MA

CITY           SKY/WX    TMP DP  RH WIND       PRES   REMARKS
Boston         CLEAR     65  55  70 NW8       30.15S
Worcester      CLEAR     62  51  67 N6        30.18S
Westfield      CLEAR     55  53  93 CALM      30.18S
Provincetown   CLEAR     66  60  81 N6        30.14F
Nantucket      CLEAR     61  57  87 N7        30.13S
$$

ANZ330-335-338-340-345-350-353-355-300900-
COASTAL MARINE OBSERVATIONS


STATION/POSITION TIME  SKY/WX   TEMP    WIND        PRES    VSBY  WAVE
                                AIR SEA DIR/SP/G                  HT/PER
                 (UTC)          (F)     (DEG/KT/KT) (MB)    (MI)  (FT/S)
NY HARB ENTRANCE 0650            76 77   30/ 14/ 16 1019.6          4/12
20S FIRE ISLAND  0650            75 75   70/ 12/ 16 1019.2          4/12
GREAT SOUTH BAY  0730            73 79   30/ 12/ 16   N/A
23 SSW MONTAUK P 0650            74 75   90/ 14/ 17 1020.6          5/11
15 E BARNEGAT LI 0700               77                N/A           4/12
HUDSON CANYON    0650            77 79              1018.6          4/12
KINGS POINT      0700            73 76              1020.4
EXECUTION ROCKS  0700            74      50/ 14/ 17   N/A
CENTRAL LI SOUND 0700            72 76   20/ 14/ 16   N/A           1/ 3
EASTERN LI SOUND 0700            69 71   10/  6/  8   N/A
ROBBINS REEF     0700            75      50/ 12/ 15 1019.8
$$


>>>>>>>>>>>>>>>>>>>>>>>>>>>> KEY <<<<<<<<<<<<<<<<<<<<<<<<<<<
>                                                          <
>     SKY/WX - Sky Condition/Present Weather               <
>     TMP    - Temperature in Fahrenheit                   <
>     DP     - Dew Point in Fahrenheit                     <
>     RH     - Relative Humidity in Percent                <
>     WIND   - Direction (from) and Speed in MPH           <
>     PRES   - Mean Sea Level Pressure (inches of Hg)      <
>     WCI    - Wind Chill Index                            <
>     VSB    - VISIBILITY IN MILES                         <
>     HX     - HEAT INDEX                                  <
>     TC     - TEMPERATURE IN CELSIUS                      <
>     VRB    - VARIABLE WIND DIRECTION                     <
>                                                          <
>>>>>>>>>>>>>>>>>>>>>>>>>>>> KEY <<<<<<<<<<<<<<<<<<<<<<<<<<<



USA.gov is the U.S. government's official web portal to all federal, state and local government web resources and services.